Back to catalog

COSMOS 1694

AliveMilitaryPO
NORAD 16142·PAYLOAD·🇷🇺 Russia

Launched Oct 9, 1985 from Plesetsk Cosmodrome

Loading…

Next Passes (next 24 hours)

TLE

FreshSource: Space-Track

Epoch: Sep 14, 2026, 14:31 UTC

1 16142U 85094E   26257.60488693  .00000011  00000-0  21020-5 0  9998
2 16142  82.6106 205.2746 0010693 220.5488 261.4589 12.63684607887958

Track COSMOS 1694 in real time with AllMySat

Download on the App Store